Location: Pittsburgh
(40.4410°N, 79.9960°W)
Time: 04:03:23
(UTC-04:00)

BlueWalker 3 - Pass Details

Date: 22 March 2026
Orbit: 449 x 457 km, 53.2° (Epoch: 17 April)

Event Time Altitude Azimuth Distance (km) Brightness Sun altitude
Rises 21:44:51 0° 249° (WSW) 2,456 6.1 -24.9°
Reaches altitude 10° 21:47:04 10° 258° (WSW) 1,588 5.1 -25.2°
Enters shadow 21:49:59 36° 308° (NW) 738 3.2 -25.7°
